Location: *
(46.4833°N, 7.6667°E)
Time: 08:13:05
(UTC+00:00)

Meteor 1-18 Rocket - Pass Details

Date: 27 February 2020
Orbit: 836 x 909 km, 81.2° (Epoch: 30 March)

Event Time Altitude Azimuth Distance (km) Brightness Sun altitude
Rises 18:30:35 0° 348° (NNW) 3,542 7.6 -14.4°
Reaches altitude 10° 18:33:04 10° 349° (NNW) 2,591 6.9 -14.8°
Maximum altitude 18:39:00 89° 264° (W) 899 4.3 -15.8°
Drops below altitude 10° 18:44:47 10° 171° (S) 2,529 6.5 -16.8°
Sets 18:47:11 0° 172° (S) 3,452 7.2 -17.2°
